EW0435 Weather Reports


Display with metric or nautical units.
time (UTC)temp
F
wind
direction
speed
MPH
gust
MPH
rain 1hr
in
rain 24hr
in
rain mn
in
humidity
%
barometer
mb
20260506040004 54 313 0.0 0.0 0.00 0.00 0.00 54 1017.7
20260506035504 55 315 0.0 0.0 0.00 0.00 0.00 53 1017.7
20260506034505 55 315 0.0 0.0 0.00 0.00 0.00 54 1017.6
20260506034004 56 315 0.0 0.0 0.00 0.00 0.00 52 1017.6
20260506033005 56 317 0.0 0.0 0.00 0.00 0.00 50 1017.5
20260506032004 55 308 0.0 0.0 0.00 0.00 0.00 53 1017.3
20260506031504 55 312 0.0 0.0 0.00 0.00 0.00 54 1017.3
20260506031004 55 308 0.0 0.0 0.00 0.00 0.00 55 1017.2
20260506030504 56 334 0.0 0.0 0.00 0.00 0.00 55 1017.2
20260506030004 57 337 0.0 0.0 0.00 0.00 0.00 53 1017.1
20260506025504 58 355 0.0 1.0 0.00 0.00 0.00 50 1017.1
20260506025004 59 345 0.0 0.0 0.00 0.00 0.00 48 1017.0
20260506024504 60 343 0.0 0.0 0.00 0.00 0.00 47 1017.0
20260506024005 60 339 0.0 0.0 0.00 0.00 0.00 46 1017.0
20260506023504 61 344 0.0 0.0 0.00 0.00 0.00 45 1016.9
20260506023003 62 338 0.0 0.0 0.00 0.00 0.00 44 1016.9
20260506022504 62 340 0.0 0.0 0.00 0.00 0.00 43 1016.8
20260506022004 63 342 0.0 0.0 0.00 0.00 0.00 43 1016.8
20260506021004 64 332 0.0 0.0 0.00 0.00 0.00 42 1016.8
20260506020504 64 311 0.0 1.0 0.00 0.00 0.00 42 1016.8
20260506020004 64 330 0.0 1.0 0.00 0.00 0.00 42 1016.8
20260506015004 65 307 0.0 2.0 0.00 0.00 0.00 39 1016.7
20260506014504 66 305 0.0 2.0 0.00 0.00 0.00 39 1016.7
20260506014004 66 317 0.0 2.0 0.00 0.00 0.00 38 1016.6
20260506013004 67 340 0.0 3.0 0.00 0.00 0.00 37 1016.7
20260506012504 67 316 0.0 8.0 0.00 0.00 0.00 39 1016.7
20260506012004 67 333 0.0 3.0 0.00 0.00 0.00 37 1016.7
20260506011504 67 326 0.0 3.0 0.00 0.00 0.00 36 1016.7
20260506011004 67 333 1.0 8.0 0.00 0.00 0.00 35 1016.7
20260506010504 68 338 1.0 5.0 0.00 0.00 0.00 36 1016.7
20260506005503 68 333 1.0 8.0 0.00 0.00 0.00 35 1016.6
20260506005003 68 336 1.0 5.0 0.00 0.00 0.00 35 1016.6
20260506004004 68 326 0.0 2.0 0.00 0.00 0.00 37 1016.7
20260506003504 68 325 1.0 3.0 0.00 0.00 0.00 36 1016.7
20260506003003 69 326 2.0 8.0 0.00 0.00 0.00 35 1016.7
20260506002503 69 330 0.0 3.0 0.00 0.00 0.00 36 1016.7
20260506002003 69 332 1.0 9.0 0.00 0.00 0.00 34 1016.7
20260506001504 69 326 1.0 7.0 0.00 0.00 0.00 36 1016.7
20260506001004 70 321 1.0 5.0 0.00 0.00 0.00 35 1016.7
20260506000504 70 333 1.0 5.0 0.00 0.00 0.00 35 1016.7
20260506000004 71 328 1.0 6.0 0.00 0.00 0.00 36 1016.7
20260505235503 71 318 1.0 3.0 0.00 0.00 0.00 37 1016.7
20260505235003 70 311 1.0 5.0 0.00 0.00 0.00 37 1016.7
20260505234503 70 321 1.0 3.0 0.00 0.00 0.00 35 1016.8
20260505234004 70 326 2.0 8.0 0.00 0.00 0.00 37 1016.8
20260505233504 70 312 1.0 7.0 0.00 0.00 0.00 38 1016.8
20260505233004 70 333 0.0 1.0 0.00 0.00 0.00 36 1016.8
20260505231504 70 342 0.0 5.0 0.00 0.00 0.00 39 1017.0
20260505231004 70 329 4.0 13.0 0.00 0.00 0.00 38 1016.9
20260505230504 70 331 0.0 3.0 0.00 0.00 0.00 38 1017.0
20260505230004 70 308 1.0 3.0 0.00 0.00 0.00 37 1017.0
20260505225504 70 325 2.0 8.0 0.00 0.00 0.00 39 1017.0
20260505225005 70 320 1.0 5.0 0.00 0.00 0.00 37 1017.0
20260505224503 70 348 0.0 5.0 0.00 0.00 0.00 37 1017.1
20260505224004 71 341 1.0 6.0 0.00 0.00 0.00 35 1017.1
20260505223504 71 324 1.0 3.0 0.00 0.00 0.00 40 1017.1
20260505222504 71 327 1.0 9.0 0.00 0.00 0.00 36 1017.1
20260505222004 72 331 0.0 3.0 0.00 0.00 0.00 36 1017.1
20260505221504 71 357 0.0 5.0 0.00 0.00 0.00 35 1017.2
20260505220504 71 355 1.0 12.0 0.00 0.00 0.00 36 1017.1
20260505220004 71 358 2.0 12.0 0.00 0.00 0.00 36 1017.2
20260505215504 71 352 0.0 10.0 0.00 0.00 0.00 35 1017.3
20260505214504 71 345 1.0 8.0 0.00 0.00 0.00 36 1017.3
20260505214004 70 355 0.0 3.0 0.00 0.00 0.00 39 1017.3
20260505213504 70 339 1.0 5.0 0.00 0.00 0.00 37 1017.3
20260505213004 70 334 0.0 3.0 0.00 0.00 0.00 38 1017.3
20260505212504 69 309 1.0 8.0 0.00 0.00 0.00 39 1017.3
20260505212004 68 333 1.0 5.0 0.00 0.00 0.00 36 1017.4
20260505211504 69 348 0.0 3.0 0.00 0.00 0.00 37 1017.4
20260505211005 69 351 0.0 1.0 0.00 0.00 0.00 39 1017.5
20260505210505 68 332 0.0 1.0 0.00 0.00 0.00 37 1017.5
20260505205004 69 26 2.0 5.0 0.00 0.00 0.00 36 1017.5
20260505204504 69 26 2.0 9.0 0.00 0.00 0.00 36 1017.5
20260505204004 69 30 1.0 3.0 0.00 0.00 0.00 36 1017.6
20260505203004 67 355 1.0 5.0 0.00 0.00 0.00 39 1017.6
20260505202504 67 39 0.0 1.0 0.00 0.00 0.00 38 1017.6
20260505202004 68 8 1.0 7.0 0.00 0.00 0.00 36 1017.6
20260505200504 71 334 0.0 1.0 0.00 0.00 0.00 34 1017.6
20260505200003 70 1 0.0 1.0 0.00 0.00 0.00 35 1017.6
20260505195505 71 30 0.0 1.0 0.00 0.00 0.00 34 1017.6
20260505195004 70 15 1.0 3.0 0.00 0.00 0.00 36 1017.6
20260505194504 69 0 1.0 6.0 0.00 0.00 0.00 35 1017.6
20260505194004 69 342 0.0 3.0 0.00 0.00 0.00 36 1017.6
20260505193505 70 42 0.0 0.0 0.00 0.00 0.00 35 1017.6
20260505193004 69 352 0.0 0.0 0.00 0.00 0.00 35 1017.7
20260505192003 67 45 0.0 0.0 0.00 0.00 0.00 38 1017.7
20260505191504 67 44 0.0 0.0 0.00 0.00 0.00 38 1017.7
20260505191005 68 50 0.0 0.0 0.00 0.00 0.00 36 1017.7
20260505190504 67 49 0.0 0.0 0.00 0.00 0.00 40 1017.7
20260505190004 66 61 0.0 1.0 0.00 0.00 0.00 41 1017.7
20260505185503 66 34 0.0 1.0 0.00 0.00 0.00 42 1017.7
20260505185004 66 44 0.0 0.0 0.00 0.00 0.00 39 1017.7
20260505184004 68 58 0.0 0.0 0.00 0.00 0.00 40 1017.6
20260505183504 68 17 0.0 0.0 0.00 0.00 0.00 36 1017.6
20260505183004 67 2 0.0 1.0 0.00 0.00 0.00 38 1017.6
20260505182504 65 40 0.0 1.0 0.00 0.00 0.00 42 1017.6
20260505182004 65 58 0.0 1.0 0.00 0.00 0.00 44 1017.6
20260505181504 64 79 0.0 1.0 0.00 0.00 0.00 46 1017.7
20260505181004 63 77 0.0 0.0 0.00 0.00 0.00 45 1017.6
20260505180004 62 68 0.0 1.0 0.00 0.00 0.00 45 1017.7
20260505175504 62 71 0.0 1.0 0.00 0.00 0.00 48 1017.7
20260505175004 62 56 0.0 2.0 0.00 0.00 0.00 48 1017.6
20260505174004 62 79 0.0 0.0 0.00 0.00 0.00 48 1017.6
20260505173003 61 66 0.0 1.0 0.00 0.00 0.00 52 1017.6
20260505172504 60 77 0.0 0.0 0.00 0.00 0.00 54 1017.6
20260505172004 60 111 0.0 1.0 0.00 0.00 0.00 51 1017.6
20260505171504 60 77 0.0 0.0 0.00 0.00 0.00 53 1017.6
20260505171004 59 91 0.0 1.0 0.00 0.00 0.00 51 1017.6
20260505170504 60 92 0.0 1.0 0.00 0.00 0.00 52 1017.5
20260505170004 59 92 0.0 0.0 0.00 0.00 0.00 52 1017.6
20260505165504 59 87 0.0 0.0 0.00 0.00 0.00 53 1017.6
20260505165004 59 84 0.0 0.0 0.00 0.00 0.00 48 1017.5
20260505164503 60 78 0.0 0.0 0.00 0.00 0.00 49 1017.5
20260505164004 59 78 0.0 0.0 0.00 0.00 0.00 50 1017.5
20260505163504 59 75 0.0 0.0 0.00 0.00 0.00 52 1017.5
20260505163004 58 76 0.0 0.0 0.00 0.00 0.00 53 1017.4
20260505162504 59 103 0.0 0.0 0.00 0.00 0.00 51 1017.4
20260505162004 58 84 0.0 0.0 0.00 0.00 0.00 51 1017.4
20260505161504 58 82 0.0 0.0 0.00 0.00 0.00 54 1017.4
20260505161004 57 86 0.0 0.0 0.00 0.00 0.00 54 1017.3
20260505160503 57 96 0.0 0.0 0.00 0.00 0.00 52 1017.4
20260505153004 56 84 0.0 0.0 0.00 0.00 0.00 54 1017.4
20260505152504 55 79 0.0 0.0 0.00 0.00 0.00 58 1017.4
20260505152005 55 79 0.0 0.0 0.00 0.00 0.00 58 1017.4
20260505151504 54 77 0.0 0.0 0.00 0.00 0.00 57 1017.4
20260505151004 54 82 0.0 0.0 0.00 0.00 0.00 59 1017.3
20260505150503 53 86 0.0 0.0 0.00 0.00 0.00 57 1017.2
20260505140504 51 105 0.0 0.0 0.00 0.00 0.00 58 1016.8
20260505125004 48 104 0.0 0.0 0.00 0.00 0.00 64 1016.4
20260505124504 48 104 0.0 0.0 0.00 0.00 0.00 64 1016.3
20260505124004 48 104 0.0 0.0 0.00 0.00 0.00 64 1016.3
20260505123004 48 104 0.0 0.0 0.00 0.00 0.00 64 1016.3
20260505122504 48 104 0.0 0.0 0.00 0.00 0.00 64 1016.2
20260505122004 48 104 0.0 0.0 0.00 0.00 0.00 65 1016.2
20260505121004 48 104 0.0 0.0 0.00 0.00 0.00 65 1016.2
20260505120005 48 104 0.0 0.0 0.00 0.00 0.00 64 1016.2
20260505115004 48 104 0.0 0.0 0.00 0.00 0.00 65 1016.2
20260505114504 48 104 0.0 0.0 0.00 0.00 0.00 66 1016.1
20260505114004 48 103 0.0 0.0 0.00 0.00 0.00 66 1016.1
20260505113504 48 103 0.0 0.0 0.00 0.00 0.00 65 1016.2
20260505113004 48 103 0.0 0.0 0.00 0.00 0.00 64 1016.1
20260505112504 49 103 0.0 0.0 0.00 0.00 0.00 64 1016.1
20260505112004 49 103 0.0 0.0 0.00 0.00 0.00 63 1016.0
20260505111504 49 103 0.0 0.0 0.00 0.00 0.00 63 1016.0
20260505111004 49 103 0.0 0.0 0.00 0.00 0.00 63 1015.9
20260505102004 51 103 0.0 0.0 0.00 0.00 0.00 60 1015.7
20260505101504 52 103 0.0 0.0 0.00 0.00 0.00 59 1015.6
20260505101004 52 103 0.0 0.0 0.00 0.00 0.00 59 1015.6
20260505100504 52 103 0.0 0.0 0.00 0.00 0.00 59 1015.6
20260505100004 52 103 0.0 0.0 0.00 0.00 0.00 59 1015.6
20260505095503 52 103 0.0 0.0 0.00 0.00 0.00 59 1015.6
20260505095005 52 103 0.0 0.0 0.00 0.00 0.00 58 1015.6
20260505094004 52 103 0.0 0.0 0.00 0.00 0.00 58 1015.5
20260505093504 52 103 0.0 0.0 0.00 0.00 0.00 57 1015.5
20260505093004 52 103 0.0 0.0 0.00 0.00 0.00 57 1015.5
20260505092504 52 103 0.0 0.0 0.00 0.00 0.00 57 1015.5
20260505092004 52 103 0.0 0.0 0.00 0.00 0.00 58 1015.5
20260505091504 52 103 0.0 0.0 0.00 0.00 0.00 57 1015.5
20260505091004 53 103 0.0 0.0 0.00 0.00 0.00 57 1015.5
20260505090505 53 103 0.0 0.0 0.00 0.00 0.00 56 1015.5
20260505090004 53 86 0.0 0.0 0.00 0.00 0.00 57 1015.5
20260505085504 53 86 0.0 0.0 0.00 0.00 0.00 58 1015.5
20260505085004 53 86 0.0 0.0 0.00 0.00 0.00 58 1015.5
20260505084504 53 86 0.0 0.0 0.00 0.00 0.00 58 1015.5
20260505084004 52 102 0.0 0.0 0.00 0.00 0.00 60 1015.5
20260505083504 52 66 0.0 0.0 0.00 0.00 0.00 61 1015.6
20260505083005 52 66 0.0 0.0 0.00 0.00 0.00 61 1015.5
20260505082504 52 67 0.0 0.0 0.00 0.00 0.00 62 1015.5
20260505082005 51 75 0.0 0.0 0.00 0.00 0.00 64 1015.5
20260505081504 50 76 0.0 0.0 0.00 0.00 0.00 66 1015.4
20260505080003 51 67 0.0 0.0 0.00 0.00 0.00 65 1015.4
20260505075504 52 82 0.0 1.0 0.00 0.00 0.00 65 1015.5
20260505074504 52 74 0.0 1.0 0.00 0.00 0.00 64 1015.5
20260505074004 52 77 0.0 0.0 0.00 0.00 0.00 63 1015.5
20260505073504 53 82 0.0 1.0 0.00 0.00 0.00 63 1015.5
20260505072003 54 86 0.0 0.0 0.00 0.00 0.00 62 1015.5
20260505071504 55 88 0.0 0.0 0.00 0.00 0.00 61 1015.5
20260505071004 55 90 0.0 0.0 0.00 0.00 0.00 61 1015.4
20260505070504 55 90 0.0 0.0 0.00 0.00 0.00 61 1015.4
20260505070004 55 91 0.0 0.0 0.00 0.00 0.00 61 1015.4
20260505065503 55 97 0.0 0.0 0.00 0.00 0.00 62 1015.4
20260505065004 55 97 0.0 0.0 0.00 0.00 0.00 62 1015.3
20260505064504 55 98 0.0 0.0 0.00 0.00 0.00 63 1015.3
20260505064004 54 98 0.0 0.0 0.00 0.00 0.00 65 1015.2
20260505063504 54 98 0.0 0.0 0.00 0.00 0.00 67 1015.2
20260505063004 54 98 0.0 0.0 0.00 0.00 0.00 67 1015.2
20260505062504 54 98 0.0 0.0 0.00 0.00 0.00 67 1015.1
20260505062004 55 98 0.0 0.0 0.00 0.00 0.00 67 1015.1
20260505061004 55 98 0.0 0.0 0.00 0.00 0.00 67 1015.1
20260505060504 54 99 0.0 0.0 0.00 0.00 0.00 68 1015.1
20260505060005 54 99 0.0 0.0 0.00 0.00 0.00 68 1015.1
20260505055504 54 99 0.0 0.0 0.00 0.00 0.00 68 1015.1
20260505055004 54 99 0.0 0.0 0.00 0.00 0.00 69 1015.0
20260505054504 54 99 0.0 0.0 0.00 0.00 0.00 69 1015.0
20260505054004 54 99 0.0 0.0 0.00 0.00 0.00 68 1015.0
20260505053504 55 99 0.0 0.0 0.00 0.00 0.00 67 1015.0
20260505053004 55 99 0.0 0.0 0.00 0.00 0.00 67 1014.9
20260505052503 55 99 0.0 0.0 0.00 0.00 0.00 67 1014.9
20260505051004 55 99 0.0 0.0 0.00 0.00 0.00 68 1014.9
20260505050504 55 99 0.0 0.0 0.00 0.00 0.00 67 1015.0
20260505041503 56 82 0.0 0.0 0.00 0.00 0.00 65 1014.5
20260505040504 58 74 1.0 3.0 0.00 0.00 0.00 59 1014.3